Grissom AFB, IN

8:35 AM EST on January 17, 2017 (GMT -0500)
Grissom Air Reserve Base

Weather History for KGUS - January, 2014

Change the Weather History Date:

Monday, January 27, 2014

  Actual Average Record
Temperature  
Mean Temperature 4 °F -  
Max Temperature 19 °F 30 °F 78 °F (2001)
Min Temperature -12 °F 17 °F -12 °F (2014)
Degree Days  
Heating Degree Days 62    
Moisture  
Dew Point 0 °F    
Average Humidity 78    
Maximum Humidity 95    
Minimum Humidity 58    
Precipitation  
Precipitation 0.00 in - - ()
Snow  
Snow 0.00 in - - ()
Snow Depth 8.00 in    
Sea Level Pressure  
Sea Level Pressure 29.97 in    
Wind  
Wind Speed 28 mph (WNW)    
Max Wind Speed 38 mph    
Max Gust Speed 45 mph    
Visibility 8 miles    
Events Rain , Snow    
Averages and records for this station are not official NWS values.
T = Trace of Precipitation, MM = Missing Value Source: NWS Daily Summary

Daily Weather History Graph

Daily Weather History Graph

Search for Another Location

Airport or City:

Trip Planner

Search our weather history database for the weather conditions in past years. The results will help you decide how hot, cold, wet, or windy it might be!

Date:

Astronomy

Jan. 27, 2014 Rise Set
Actual Time 7:58 AM EST 5:56 PM EST
Civil Twilight 7:29 AM EST 6:25 PM EST
Nautical Twilight 6:56 AM EST 6:58 PM EST
Astronomical Twilight 6:24 AM EST 7:30 PM EST
Moon 4:39 AM EST (1/27) 2:41 PM EST (1/27)
Length of Visible Light 10h 55m
Length of Day
9h 57m
Waning Crescent, 15% of the Moon is Illuminated
Jan 27
Waning Crescent
Jan 30
New
Feb 6
First Quarter
Feb 14
Full
Feb 22
Last Quarter

Hourly Weather History & Observations

Time (EST) Temp. Windchill Dew Point Humidity Pressure Visibility Wind Dir Wind Speed Gust Speed Precip Events Conditions
12:03 AM 19.4 °F 0.2 °F 14.0 °F 80% 29.67 in 2.0 mi WNW 31.1 mph 42.6 mph N/A Snow Light Snow
12:08 AM 19.4 °F -0.8 °F 12.2 °F 74% 29.68 in 4.0 mi WNW 35.7 mph 42.6 mph N/A Snow Light Snow
12:18 AM 17.6 °F -3.3 °F 10.4 °F 73% 29.68 in 4.0 mi WNW 35.7 mph 44.9 mph N/A Snow Light Snow
12:23 AM 17.6 °F -3.1 °F 6.8 °F 63% 29.68 in 6.0 mi WNW 34.5 mph 42.6 mph N/A Snow Light Snow
12:24 AM 17.6 °F -3.6 °F 6.8 °F 63% 29.68 in 7.0 mi WNW 36.8 mph 43.7 mph N/A Rain Light Freezing Rain
12:26 AM 17.6 °F -2.2 °F 5.0 °F 58% 29.69 in 7.0 mi WNW 31.1 mph 43.7 mph N/A Snow Light Snow
12:36 AM 15.8 °F -3.7 °F 6.8 °F 68% 29.70 in 10.0 mi West 27.6 mph 41.4 mph N/A Snow Light Snow
12:37 AM 15.8 °F -3.7 °F 6.8 °F 68% 29.69 in 10.0 mi West 27.6 mph 41.4 mph N/A Rain Light Freezing Rain
12:43 AM 15.8 °F -4.7 °F 5.0 °F 62% 29.68 in 10.0 mi WNW 31.1 mph 38.0 mph N/A Snow Light Snow
12:48 AM 15.8 °F -3.7 °F 5.0 °F 62% 29.70 in 8.0 mi West 27.6 mph 38.0 mph N/A Snow Light Snow
12:58 AM 15.4 °F -3.2 °F 7.2 °F 70% 29.75 in 6.0 mi West 24.2 mph 34.5 mph 0.00 in Snow Light Snow
1:08 AM 15.8 °F -2.7 °F 8.6 °F 73% 29.71 in 10.0 mi West 24.2 mph 29.9 mph N/A Snow Light Snow
1:13 AM 15.8 °F -3.1 °F 6.8 °F 68% 29.72 in 10.0 mi West 25.3 mph 33.4 mph N/A   Overcast
1:14 AM 15.8 °F -4.1 °F 6.8 °F 68% 29.72 in 10.0 mi West 28.8 mph 35.7 mph N/A   Light Freezing Drizzle
1:19 AM 15.8 °F -6.3 °F 8.6 °F 73% 29.72 in 5.0 mi West 38.0 mph 42.6 mph N/A   Light Freezing Drizzle
1:20 AM 15.8 °F -5.8 °F 8.6 °F 73% 29.72 in 4.0 mi West 35.7 mph 42.6 mph N/A Snow Light Snow
1:25 AM 14.0 °F -8.5 °F 8.6 °F 79% 29.73 in 1.8 mi West 36.8 mph 42.6 mph N/A Snow Light Snow
1:40 AM 12.2 °F -11.0 °F 8.6 °F 85% 29.74 in 2.5 mi West 36.8 mph 42.6 mph N/A Snow Light Snow
1:45 AM 10.4 °F -13.0 °F 8.6 °F 92% 29.75 in 2.0 mi West 34.5 mph 43.7 mph N/A Snow Light Snow
1:50 AM 10.4 °F -12.3 °F 8.6 °F 92% 29.75 in 1.2 mi West 32.2 mph 43.7 mph N/A Snow Light Snow
1:55 AM 10.4 °F -12.0 °F 8.6 °F 92% 29.76 in 1.0 mi WNW 31.1 mph 40.3 mph N/A Snow Light Snow
1:58 AM 10.4 °F -11.0 °F 9.1 °F 95% 29.82 in 1.0 mi WNW 27.6 mph 36.8 mph 0.00 in Snow Light Snow
2:03 AM 10.4 °F -11.7 °F 8.6 °F 92% 29.77 in 2.5 mi WNW 29.9 mph 39.1 mph N/A Snow Light Snow
2:08 AM 10.4 °F -13.5 °F 6.8 °F 85% 29.78 in 4.0 mi WNW 36.8 mph 42.6 mph N/A Snow Light Snow
2:13 AM 8.6 °F -16.0 °F 5.0 °F 85% 29.78 in 2.5 mi WNW 36.8 mph 42.6 mph N/A Snow Light Snow
2:18 AM 8.6 °F -15.4 °F 5.0 °F 85% 29.79 in 2.0 mi WNW 34.5 mph 43.7 mph N/A Snow Light Snow
2:23 AM 8.6 °F -15.7 °F 5.0 °F 85% 29.79 in 4.0 mi WNW 35.7 mph 43.7 mph N/A Snow Light Snow
2:24 AM 8.6 °F -15.4 °F 5.0 °F 85% 29.79 in 5.0 mi WNW 34.5 mph 43.7 mph N/A   Light Freezing Drizzle
2:34 AM 8.6 °F -14.1 °F 3.2 °F 79% 29.82 in 10.0 mi WNW 29.9 mph 44.9 mph N/A   Light Freezing Drizzle
2:39 AM 8.6 °F -15.1 °F 3.2 °F 79% 29.82 in 9.0 mi WNW 33.4 mph 44.9 mph N/A   Light Freezing Drizzle
2:49 AM 6.8 °F -15.5 °F 1.4 °F 79% 29.83 in 6.0 mi WNW 26.5 mph 43.7 mph N/A   Light Freezing Drizzle
2:53 AM 6.8 °F -16.9 °F 1.4 °F 79% 29.84 in 8.0 mi WNW 31.1 mph 43.7 mph N/A   Light Freezing Rain
2:54 AM 6.8 °F -16.6 °F 1.4 °F 79% 29.84 in 9.0 mi WNW 29.9 mph 40.3 mph N/A   Overcast
2:58 AM 6.8 °F -17.3 °F 1.4 °F 79% 29.89 in 9.0 mi WNW 32.2 mph 41.4 mph 0.00 in   Overcast
3:03 AM 6.8 °F -15.5 °F 1.4 °F 79% 29.86 in 9.0 mi WNW 26.5 mph 41.4 mph N/A   Mostly Cloudy
3:08 AM 6.8 °F -16.6 °F 1.4 °F 79% 29.86 in 9.0 mi WNW 29.9 mph 39.1 mph N/A   Overcast
3:18 AM 5.0 °F -18.3 °F 1.4 °F 85% 29.87 in 10.0 mi WNW 27.6 mph 39.1 mph N/A   Light Freezing Rain
3:23 AM 5.0 °F -19.0 °F 1.4 °F 85% 29.87 in 9.0 mi WNW 29.9 mph 35.7 mph N/A   Light Freezing Rain
3:30 AM 5.0 °F -17.5 °F 1.4 °F 85% 29.88 in 9.0 mi WNW 25.3 mph 36.8 mph N/A   Overcast
3:40 AM 5.0 °F -18.7 °F -0.4 °F 78% 29.90 in 10.0 mi WNW 28.8 mph 35.7 mph N/A   Overcast
3:42 AM 5.0 °F -17.5 °F -0.4 °F 78% 29.90 in 10.0 mi WNW 25.3 mph 35.7 mph N/A   Overcast
3:47 AM 3.2 °F -19.5 °F -0.4 °F 85% 29.91 in 10.0 mi WNW 24.2 mph 35.7 mph N/A   Overcast
3:58 AM 3.7 °F -19.6 °F -0.8 °F 82% 29.96 in 10.0 mi WNW 26.5 mph 33.4 mph 0.00 in   Overcast
4:03 AM 3.2 °F -19.9 °F -0.4 °F 85% 29.93 in 10.0 mi WNW 25.3 mph 33.4 mph N/A   Overcast
4:13 AM 3.2 °F -19.9 °F -0.4 °F 85% 29.94 in 10.0 mi WNW 25.3 mph 29.9 mph N/A   Overcast
4:23 AM 3.2 °F -18.6 °F -0.4 °F 85% 29.94 in 10.0 mi WNW 21.9 mph 32.2 mph N/A   Overcast
4:33 AM 3.2 °F -19.0 °F -2.2 °F 78% 29.95 in 10.0 mi WNW 23.0 mph 27.6 mph N/A   Overcast
4:58 AM 2.1 °F -20.5 °F -2.6 °F 81% 30.02 in 10.0 mi WNW 23.0 mph - N/A   Overcast
5:23 AM 1.4 °F -19.4 °F -4.0 °F 78% 29.99 in 10.0 mi WNW 18.4 mph - N/A   Overcast
5:58 AM 0.9 °F -22.6 °F -4.7 °F 77% 30.07 in 10.0 mi WNW 24.2 mph 29.9 mph N/A   Scattered Clouds
6:13 AM -0.4 °F -23.3 °F -4.0 °F 85% 30.03 in 10.0 mi WNW 21.9 mph - N/A   Mostly Cloudy
6:18 AM -0.4 °F -23.3 °F -4.0 °F 85% 30.03 in 10.0 mi WNW 21.9 mph - N/A   Mostly Cloudy
6:23 AM -0.4 °F -22.8 °F -4.0 °F 85% 30.04 in 10.0 mi WNW 20.7 mph - N/A   Scattered Clouds
6:38 AM -0.4 °F -21.7 °F -4.0 °F 85% 30.05 in 10.0 mi West 18.4 mph - N/A   Mostly Cloudy
6:53 AM -0.4 °F -22.3 °F -4.0 °F 85% 30.06 in 10.0 mi WNW 19.6 mph - N/A   Mostly Cloudy
6:58 AM -0.8 °F -22.2 °F -4.4 °F 85% 30.13 in 10.0 mi West 18.4 mph - N/A   Overcast
7:58 AM -1.7 °F -20.0 °F -5.4 °F 84% 30.16 in 10.0 mi West 12.7 mph - N/A   Mostly Cloudy
8:03 AM -2.2 °F -22.2 °F -5.8 °F 85% 30.11 in 10.0 mi West 15.0 mph - N/A   Overcast
8:47 AM -2.2 °F -22.2 °F -5.8 °F 85% 30.13 in 10.0 mi West 15.0 mph 20.7 mph N/A   Mostly Cloudy
8:58 AM -2.2 °F -22.2 °F -6.2 °F 83% 30.19 in 10.0 mi West 15.0 mph - N/A   Scattered Clouds
9:58 AM -1.1 °F -22.7 °F -6.0 °F 80% 30.23 in 10.0 mi West 18.4 mph - N/A   Scattered Clouds
10:30 AM -0.4 °F -21.2 °F -5.8 °F 78% 30.19 in 10.0 mi West 17.3 mph - N/A   Partly Cloudy
10:58 AM -0.2 °F -23.6 °F -6.2 °F 76% 30.26 in 10.0 mi West 23.0 mph - N/A   Clear
11:58 AM -0.0 °F -21.8 °F -6.5 °F 74% 30.27 in 10.0 mi WNW 19.6 mph - N/A   Partly Cloudy
12:58 PM 1.2 °F -20.7 °F -5.4 °F 74% 30.28 in 10.0 mi West 20.7 mph - N/A   Scattered Clouds
1:53 PM 1.4 °F -21.4 °F -4.0 °F 78% 30.21 in 7.0 mi West 23.0 mph - N/A   Scattered Clouds
1:58 PM 1.4 °F -19.9 °F -5.3 °F 74% 30.28 in 10.0 mi West 19.6 mph - N/A   Scattered Clouds
2:26 PM 1.4 °F -20.5 °F -4.0 °F 78% 30.28 in 6.0 mi West 20.7 mph 27.6 mph N/A Snow Blowing Snow
2:29 PM 1.4 °F -21.9 °F -4.0 °F 78% 30.22 in 10.0 mi WNW 24.2 mph 27.6 mph N/A   Mostly Cloudy
2:58 PM 1.6 °F -20.7 °F -6.0 °F 71% 30.28 in 10.0 mi West 21.9 mph - N/A   Clear
3:58 PM 1.8 °F -20.5 °F -6.0 °F 70% 30.30 in 10.0 mi West 21.9 mph - N/A   Partly Cloudy
4:58 PM 0.5 °F -22.2 °F -8.5 °F 66% 30.32 in 10.0 mi WNW 21.9 mph - N/A   Partly Cloudy
5:58 PM -1.8 °F -24.2 °F -10.5 °F 67% 30.37 in 10.0 mi WNW 19.6 mph - N/A   Partly Cloudy
6:58 PM -3.3 °F -21.2 °F -8.7 °F 78% 30.39 in 10.0 mi WNW 11.5 mph - N/A   Scattered Clouds
7:58 PM -5.6 °F -24.1 °F -11.7 °F 75% 30.43 in 10.0 mi NW 11.5 mph - N/A   Clear
8:58 PM -6.3 °F -25.9 °F -13.2 °F 72% 30.44 in 10.0 mi WNW 12.7 mph - N/A   Clear
9:58 PM -11.0 °F -27.6 °F -15.7 °F 80% 30.48 in 10.0 mi West 8.1 mph - N/A   Clear
10:58 PM -12.5 °F -29.3 °F -17.3 °F 79% 30.49 in 10.0 mi West 8.1 mph - N/A   Clear
11:58 PM -12.5 °F -29.3 °F -17.7 °F 78% 30.50 in 10.0 mi WSW 8.1 mph - N/A   Clear